#datint,netname,site,siteID,timestamp,IntT,BattV,AirT2,AirT,AirT_Avg,AirT_Max,AirT_Min,RH_Avg,RH_Max,RH_Min,EA_Avg,Td_Avg,Td_Max,Td_Min,WindS_Smp,WindS_Avg,WindD_Avg,WindD_SD,WindS_Max,ETo,ETr,SoilT4,SoilT8,SoilVWC8,SolarW_Avg,wetstate_Avg,wetT_Avg,Precip_accum,Precip_WPG,Precip_TB
15min,AgWx,beryljct,423,18JUN2017:01:00:00,69.4,12.89,70.8,70.8,70.6,71.0,69.8,39,41,38,0.986,44.6,45.3,44.1,0.965,1.6,32,19,3.2,-0.00010,-0.00009,77.6,69.1,.,0,0,66.5,1.75,0.00,0.00
15min,AgWx,beryljct,423,18JUN2017:01:15:00,69.0,12.88,68.8,69.0,69.9,70.9,69.0,40,41,38,0.989,44.2,44.6,44.0,0.833,1.5,11,33,3.1,-0.00013,-0.00015,77.2,69.1,.,0,0,65.8,1.75,0.00,0.00
15min,AgWx,beryljct,423,18JUN2017:01:30:00,68.2,12.88,67.4,67.6,67.9,69.0,67.2,43,45,41,0.989,44.6,45.5,44.1,0,0.8,146,18,2.1,-0.00026,-0.00036,76.8,69.1,.,0,0,63.2,1.75,0.00,0.00
15min,AgWx,beryljct,423,18JUN2017:01:45:00,67.4,12.87,67.7,67.7,67.7,67.9,67.5,43,44,43,0.986,44.4,45.0,44.0,1.337,0.3,61,21,1.6,-0.00036,-0.00055,76.4,69.1,.,0,0,62.8,1.75,0.00,0.00
15min,AgWx,beryljct,423,18JUN2017:02:00:00,66.9,12.85,67.5,67.7,68.1,68.5,67.7,42,43,42,0.986,44.4,44.7,44.1,1.951,1.3,39,28,2.7,-0.00017,-0.00022,76.1,69.1,.,0,0,63.7,1.75,0.00,0.00
15min,AgWx,beryljct,423,18JUN2017:02:15:00,66.4,12.86,66.7,66.8,66.6,67.6,65.7,44,46,43,0.978,44.1,44.8,43.8,2.324,1.9,1.0,21,3.6,-0.00007,-0.00006,75.7,69.1,.,0,0,63.3,1.75,0.00,0.00
15min,AgWx,beryljct,423,18JUN2017:02:30:00,65.9,12.85,63.7,63.3,65.7,66.8,63.3,46,51,43,1.002,44.1,45.5,43.6,2.872,1.7,85,80,3.6,-0.00011,-0.00011,75.3,69.1,.,0,0,61.8,1.75,0.00,0.00
15min,AgWx,beryljct,423,18JUN2017:02:45:00,65.1,12.84,65.8,65.9,64.9,65.9,63.3,48,51,47,1.023,45.0,46.1,44.5,3.047,2.1,140,61,4.1,-0.00006,-0.00004,75.1,69.1,.,0,0,61.4,1.75,0.00,0.00
15min,AgWx,beryljct,423,18JUN2017:03:00:00,64.9,12.84,65.5,65.3,66.0,66.3,65.3,46,48,45,1.025,44.8,45.5,44.1,2.214,2.3,43,13,3.7,-0.00001,0.00003,74.7,69.1,.,0,0,62.7,1.76,0.00,0.00
15min,AgWx,beryljct,423,18JUN2017:03:15:00,64.4,12.83,64.9,64.6,64.8,65.2,64.4,48,50,47,1.014,44.7,45.6,44.0,1.885,1.4,271,78,3.1,-0.00016,-0.00020,74.3,69.1,.,0,0,60.9,1.76,0.00,0.00
15min,AgWx,beryljct,423,18JUN2017:03:30:00,64.0,12.83,65.4,65.5,65.2,65.6,64.7,47,49,45,0.981,44.6,45.6,43.8,2.236,1.0,297,77,2.7,-0.00021,-0.00029,74.1,69.1,.,0,0,60.8,1.76,0.00,0.00
15min,AgWx,beryljct,423,18JUN2017:03:45:00,63.8,12.82,62.9,62.8,65.5,66.3,62.7,46,50,44,0.982,44.0,44.4,43.8,1.403,2.1,355,41,5.0,-0.00004,-0.00002,73.7,69.1,.,0,0,62.0,1.76,0.00,0.00
15min,AgWx,beryljct,423,18JUN2017:04:00:00,63.3,12.81,63.5,63.2,62.7,63.5,61.2,52,59,49,0.988,44.9,47.4,43.7,1.666,2.4,267,17,3.7,-0.00003,0.00000,73.4,69.1,.,0,0,60.1,1.76,0.00,0.00
15min,AgWx,beryljct,423,18JUN2017:04:15:00,62.8,12.81,64.2,64.0,63.3,64.0,62.7,49,53,47,0.963,44.1,45.8,43.5,1.162,1.4,299,34,2.6,-0.00015,-0.00019,73.0,69.1,.,0,0,60.1,1.76,0.00,0.00
15min,AgWx,beryljct,423,18JUN2017:04:30:00,62.5,12.81,64.9,65.0,64.6,65.2,63.9,46,51,45,0.950,43.6,45.6,43.1,2.236,1.8,20,19,3.2,-0.00009,-0.00009,72.8,69.1,.,0,0,61.0,1.76,0.01,0.00
15min,AgWx,beryljct,423,18JUN2017:04:45:00,62.3,12.8,62.0,62.0,63.7,65.0,62.0,47,50,45,0.947,43.1,44.0,42.7,1.403,2.0,347,33,4.0,-0.00006,-0.00005,72.5,69.1,.,0,0,60.6,1.76,0.00,0.00
15min,AgWx,beryljct,423,18JUN2017:05:00:00,61.8,12.8,61.8,61.5,61.6,62.1,61.2,50,51,49,0.925,42.8,43.6,42.4,2.061,1.6,320,18,2.2,-0.00013,-0.00016,72.1,69.1,.,0,0,58.6,1.76,0.00,0.00
15min,AgWx,beryljct,423,18JUN2017:05:15:00,61.2,12.8,61.7,61.6,61.3,62.0,60.6,52,55,50,0.985,43.4,44.6,42.6,1.885,1.6,280,20,2.6,-0.00013,-0.00015,71.9,69.1,.,0,0,58.1,1.76,0.00,0.00
15min,AgWx,beryljct,423,18JUN2017:05:30:00,60.8,12.79,62.4,62.4,62.0,62.6,61.1,49,53,48,0.932,42.8,44.1,42.5,0.022,1.5,350,37,3.9,0.00024,0.00042,71.7,69.1,.,0,0,58.6,1.76,0.00,0.00
15min,AgWx,beryljct,423,18JUN2017:05:45:00,60.4,12.78,61.1,61.3,61.9,62.4,61.3,50,53,48,0.945,43.3,44.2,42.6,1.096,0.8,56,30,2.7,0.00013,0.00022,71.4,69.1,.,0,0,57.6,1.76,0.00,0.00
15min,AgWx,beryljct,423,18JUN2017:06:00:00,60.0,12.79,59.8,59.8,60.5,61.4,59.7,52,54,51,0.936,42.8,43.2,42.5,1.162,1.9,330,15,3.2,0.00027,0.00047,71.1,69.1,.,1,0,57.7,1.76,0.00,0.00
15min,AgWx,beryljct,423,18JUN2017:06:15:00,59.5,12.79,60.2,59.8,59.5,59.9,59.2,54,55,53,0.926,42.9,43.5,42.5,2.477,0.7,326,8.6,2.5,0.00013,0.00020,70.8,69.1,.,5,0,56.5,1.76,0.00,0.00
15min,AgWx,beryljct,423,18JUN2017:06:30:00,59.4,12.79,60.2,59.9,59.9,60.2,59.7,53,54,52,0.927,42.6,43.1,42.4,3.113,2.7,314,15,3.3,0.00045,0.00073,70.5,69.1,.,13,0,59.2,1.77,0.00,0.00
15min,AgWx,beryljct,423,18JUN2017:06:45:00,60.0,12.82,59.9,60.2,60.3,60.9,59.7,52,53,51,0.943,42.6,43.0,42.3,3.486,2.7,321,19,3.5,0.00065,0.00095,70.2,69.1,.,44,0,62.2,1.77,0.00,0.00
15min,AgWx,beryljct,423,18JUN2017:07:00:00,61.5,12.84,59.7,60.0,59.6,60.2,59.0,56,59,53,0.948,43.9,45.5,43.0,1.863,2.3,341,13,4.0,0.00074,0.00099,70.0,69.1,.,85,0,65.5,1.77,0.00,0.00
15min,AgWx,beryljct,423,18JUN2017:07:15:00,63.5,12.86,62.2,62.6,61.4,62.6,60.1,53,57,50,0.959,44.2,46.2,43.0,2.433,3.0,294,7.5,3.9,0.00105,0.00139,69.7,69.1,.,132,0,68.9,1.77,0.00,0.00
15min,AgWx,beryljct,423,18JUN2017:07:30:00,65.9,12.88,64.0,64.5,63.6,64.6,62.7,48,51,46,0.988,43.8,44.8,43.0,1.841,2.6,339,11,4.1,0.00128,0.00164,69.6,69.1,.,170,0,72.2,1.78,0.00,0.00
15min,AgWx,beryljct,423,18JUN2017:07:45:00,69.0,12.9,67.0,68.0,66.5,68.0,64.6,44,48,41,1.040,44.0,45.8,43.2,1.907,0.7,16,29,2.3,0.00135,0.00152,69.4,69.1,.,215,0,78.5,1.78,0.00,0.00
15min,AgWx,beryljct,423,18JUN2017:08:00:00,71.8,12.91,67.6,67.9,67.2,68.1,66.6,43,47,42,0.977,44.2,45.8,43.4,1.907,1.8,20,27,3.7,0.00179,0.00213,69.3,69.1,.,260,0,79.9,1.78,0.00,0.00
15min,AgWx,beryljct,423,18JUN2017:08:15:00,74.5,12.96,70.4,70.5,68.9,70.5,68.0,42,43,40,1.004,44.7,46.1,43.7,0.965,0.9,72,26,2.1,0.00192,0.00217,69.1,69.1,.,292,0,84.2,1.79,0.00,0.00
15min,AgWx,beryljct,423,18JUN2017:08:30:00,76.7,13.04,71.9,71.6,70.7,71.6,70.3,40,43,37,0.998,45.3,46.8,44.0,9.19,3.3,49,31,9.8,0.00259,0.00318,69.2,69.1,.,344,0,84.9,1.78,0.00,0.00
15min,AgWx,beryljct,423,18JUN2017:08:45:00,77.6,13.22,73.1,73.0,72.0,73.0,71.3,38,42,35,0.981,45.2,47.6,43.4,5.217,8.4,44,20,12.6,0.00357,0.00483,69.4,69.1,.,399,0,83.0,1.78,0.00,0.00
15min,AgWx,beryljct,423,18JUN2017:09:00:00,78.3,13.51,73.8,73.1,73.1,73.9,72.6,38,40,35,1.049,45.7,47.9,44.1,11.51,11.4,49,10,16.8,0.00419,0.00578,69.6,69.1,.,447,0,83.8,1.78,0.00,0.00
15min,AgWx,beryljct,423,18JUN2017:09:15:00,79.0,13.83,74.5,74.0,74.0,74.7,73.0,36,40,33,0.994,45.2,47.5,43.6,17.76,11.7,48,12,19.5,0.00457,0.00628,70.1,69.1,.,493,0,85.0,1.77,0.00,0.00
15min,AgWx,beryljct,423,18JUN2017:09:30:00,79.6,14.08,75.4,74.8,74.5,75.6,73.7,35,37,32,1.024,45.0,46.4,43.5,15.67,13.9,49,13,19.9,0.00507,0.00704,70.4,69.1,.,537,0,85.4,1.77,0.00,0.00
15min,AgWx,beryljct,423,18JUN2017:09:45:00,80.4,14.06,75.7,75.4,75.5,76.3,74.7,33,36,31,1.016,44.7,46.2,43.3,18.15,14.9,49,14,20.6,0.00552,0.00767,70.9,69.1,.,582,0,86.7,1.77,0.00,0.00
15min,AgWx,beryljct,423,18JUN2017:10:00:00,81.0,14.05,76.2,75.8,75.6,76.7,74.9,33,35,31,1.015,44.8,46.0,43.6,15.89,16.2,49,13,22.8,0.00586,0.00815,71.3,69.1,.,625,0,86.9,1.76,0.00,0.00
15min,AgWx,beryljct,423,18JUN2017:10:15:00,81.7,14.03,78.1,77.6,76.3,77.7,75.5,33,36,30,1.025,45.2,47.5,43.4,16.05,14.6,51,13,20.2,0.00602,0.00822,71.9,69.1,.,667,0,88.3,1.76,0.00,0.00
15min,AgWx,beryljct,423,18JUN2017:10:30:00,82.5,14.01,78.8,78.3,77.5,78.3,76.4,31,35,29,1.058,44.6,47.0,42.9,14.42,12.8,44,16,22.3,0.00625,0.00837,72.5,69.1,.,706,0,90.7,1.76,0.00,0.00
15min,AgWx,beryljct,423,18JUN2017:10:45:00,83.3,14.01,79.1,78.6,78.1,78.8,77.5,30,33,28,0.965,44.6,46.4,42.9,11.66,13.9,42,16,20.3,0.00663,0.00891,73.1,69.1,.,744,0,91.6,1.76,0.00,0.00
15min,AgWx,beryljct,423,18JUN2017:11:00:00,83.9,14,79.9,79.4,78.6,79.4,78.1,31,34,29,1.030,45.6,47.6,44.1,14.91,16.2,51,10,21.9,0.00702,0.00953,73.6,69.1,.,779,0,91.6,1.76,0.00,0.00
15min,AgWx,beryljct,423,18JUN2017:11:15:00,85.0,14.01,81.1,80.4,79.9,80.6,78.8,29,33,27,1.031,44.9,47.4,43.1,9.16,12.6,40,20,19.0,0.00710,0.00936,74.3,69.1,.,813,0,94.2,1.76,0.00,0.00
15min,AgWx,beryljct,423,18JUN2017:11:30:00,86.0,13.94,80.3,79.9,80.1,81.2,79.4,30,32,27,1.070,45.7,47.9,43.2,11.71,14.2,53,16,21.4,0.00741,0.00984,74.9,69.1,.,844,0,94.3,1.75,0.00,0.00
15min,AgWx,beryljct,423,18JUN2017:11:45:00,87.1,13.77,82.6,82.2,81.0,82.2,79.9,28,32,26,0.988,45.2,47.7,43.0,6.708,11.9,42,25,21.0,0.00750,0.00975,75.5,69.1,.,872,0,96.4,1.75,0.00,0.00
15min,AgWx,beryljct,423,18JUN2017:12:00:00,88.0,13.54,82.3,82.2,81.5,82.8,80.5,28,31,25,1.016,45.5,47.6,43.2,16.05,14.3,50,13,22.1,0.00790,0.01044,76.3,69.1,.,898,0,96.5,1.75,0.00,0.00
15min,AgWx,beryljct,423,18JUN2017:12:15:00,88.5,13.53,83.6,83.4,82.1,83.6,81.0,27,31,25,0.989,44.7,47.6,42.9,10.22,13.0,44,22,19.9,0.00802,0.01050,77.0,69.1,.,920,0,97.5,1.74,0.00,0.00
15min,AgWx,beryljct,423,18JUN2017:12:30:00,88.7,13.51,82.6,82.1,82.4,83.4,81.2,28,30,25,1.023,45.6,47.8,43.4,16.59,15.2,60,11,22.7,0.00833,0.01105,77.6,69.1,.,941,0,97.1,1.74,0.00,0.00
15min,AgWx,beryljct,423,18JUN2017:12:45:00,88.7,13.53,84.4,83.7,83.0,84.0,82.1,26,29,23,1.056,44.4,47.9,41.8,12.25,13.2,44,21,20.5,0.00836,0.01093,78.5,69.1,.,958,0,98.7,1.74,0.00,0.00
15min,AgWx,beryljct,423,18JUN2017:13:00:00,88.9,13.48,83.8,83.2,83.8,84.5,83.1,24,28,22,0.964,43.4,46.9,41.7,15.19,13.0,36,19,20.5,0.00853,0.01114,79.2,69.1,.,971,0,100.2,1.73,0.00,0.00
15min,AgWx,beryljct,423,18JUN2017:13:15:00,89.2,13.48,85.0,84.5,84.0,84.8,83.2,24,29,21,0.919,43.0,47.4,40.9,10.94,11.8,35,22,19.3,0.00850,0.01099,79.8,69.1,.,981,0,100.9,1.73,0.00,0.00
15min,AgWx,beryljct,423,18JUN2017:13:30:00,89.8,13.48,86.5,86.1,85.4,86.4,84.4,23,27,20,0.872,43.2,47.3,40.6,16.13,10.9,37,21,17.1,0.00855,0.01096,80.5,69.1,.,987,0,102.6,1.73,0.00,0.00
15min,AgWx,beryljct,423,18JUN2017:13:45:00,90.2,13.44,86.0,85.5,85.1,86.1,84.3,23,26,20,0.896,43.0,46.0,40.4,8.02,13.0,46,18,18.7,0.00878,0.01150,81.1,69.1,.,990,0,101.4,1.72,0.00,0.00
15min,AgWx,beryljct,423,18JUN2017:14:00:00,90.5,13.45,86.3,85.6,85.7,86.6,84.7,22,27,20,0.980,42.8,47.0,40.5,12.56,12.1,46,23,18.6,0.00871,0.01132,81.7,69.1,.,987,0,102.1,1.72,0.00,0.00
15min,AgWx,beryljct,423,18JUN2017:14:15:00,90.9,13.42,87.2,86.7,86.8,87.8,85.6,22,26,19,0.989,42.8,47.8,39.4,9.71,11.5,49,17,19.7,0.00860,0.01119,82.3,69.1,.,962,0,102.9,1.71,0.00,0.00
15min,AgWx,beryljct,423,18JUN2017:14:30:00,91.3,13.43,87.2,86.5,86.7,88.0,85.8,21,24,19,0.887,42.2,45.0,40.1,4.911,12.1,48,19,21.8,0.00877,0.01146,83.0,69.1,.,976,0,102.9,1.72,0.00,0.00
15min,AgWx,beryljct,423,18JUN2017:14:45:00,91.6,13.41,88.7,88.0,87.2,88.3,86.2,21,25,18,0.922,42.4,47.1,39.3,14.21,12.7,47,18,21.6,0.00866,0.01142,83.5,69.1,.,944,0,102.7,1.71,0.00,0.00
15min,AgWx,beryljct,423,18JUN2017:15:00:00,92.2,13.39,87.1,86.5,87.2,88.5,86.3,22,24,19,0.904,43.3,46.4,40.7,13.59,13.7,57,11,20.3,0.00874,0.01164,84.1,69.1,.,937,0,101.8,1.71,0.00,0.00
15min,AgWx,beryljct,423,18JUN2017:15:15:00,92.5,13.39,89.1,88.7,87.0,88.7,86.3,21,25,18,0.832,42.7,46.8,39.8,9.08,14.1,62,15,20.7,0.00873,0.01169,84.6,69.1,.,929,0,100.8,1.71,0.00,0.00
15min,AgWx,beryljct,423,18JUN2017:15:30:00,93.4,13.36,89.5,88.8,88.3,89.5,87.4,20,23,17,1.009,41.9,46.1,38.4,13.28,12.4,52,17,19.0,0.00850,0.01128,85.1,69.1,.,906,0,102.7,1.72,0.00,0.00
15min,AgWx,beryljct,423,18JUN2017:15:45:00,94.2,13.38,88.7,87.9,88.1,89.3,87.0,21,24,18,0.914,42.8,46.4,40.3,16.29,15.3,55,14,22.7,0.00850,0.01165,85.7,69.1,.,853,0,101.4,1.72,0.00,0.00
15min,AgWx,beryljct,423,18JUN2017:16:00:00,94.6,13.35,88.7,87.9,88.1,88.8,87.6,21,23,19,0.922,43.0,46.1,40.9,14.91,15.0,59,9.6,21.6,0.00846,0.01157,85.9,69.1,.,851,0,101.0,1.72,0.00,0.00
15min,AgWx,beryljct,423,18JUN2017:16:15:00,94.6,13.33,89.6,89.1,88.4,89.7,87.7,20,23,17,0.818,42.7,46.7,39.4,7.695,14.5,58,13,20.3,0.00824,0.01130,86.3,69.1,.,820,0,100.4,1.72,0.00,0.00
15min,AgWx,beryljct,423,18JUN2017:16:30:00,94.9,13.32,89.4,88.9,88.8,89.9,88.3,20,22,18,0.896,42.5,45.0,39.6,13.88,14.4,57,11,24.3,0.00803,0.01107,86.7,69.1,.,786,0,101.1,1.72,0.00,0.00
15min,AgWx,beryljct,423,18JUN2017:16:45:00,95.4,13.32,89.2,88.8,89.3,90.8,88.1,20,22,17,1.017,42.4,45.1,40.0,17.69,14.0,53,14,21.6,0.00777,0.01077,86.8,69.1,.,749,0,101.3,1.72,0.00,0.00
15min,AgWx,beryljct,423,18JUN2017:17:00:00,95.8,13.3,90.1,89.2,89.7,90.5,88.9,18,23,17,0.921,41.0,46.1,39.0,13.9,12.3,39,21,21.0,0.00732,0.01010,87.2,69.1,.,710,0,100.8,1.72,0.00,0.00
15min,AgWx,beryljct,423,18JUN2017:17:15:00,95.9,13.3,89.6,89.1,89.5,90.0,88.8,19,20,17,0.856,41.4,44.0,39.5,17.14,14.2,49,14,19.7,0.00731,0.01033,87.3,69.1,.,669,0,98.4,1.72,0.00,0.00
15min,AgWx,beryljct,423,18JUN2017:17:30:00,95.9,13.32,90.2,89.3,89.6,90.2,88.9,18,21,16,0.919,40.9,45.0,37.8,14.36,13.5,50,18,19.6,0.00694,0.00987,87.2,69.1,.,628,0,99.7,1.72,0.00,0.00
15min,AgWx,beryljct,423,18JUN2017:17:45:00,95.8,13.3,90.9,90.5,89.5,90.5,88.9,18,20,16,0.776,40.4,43.4,37.8,8.59,12.7,47,20,20.2,0.00651,0.00931,87.5,69.1,.,583,0,99.5,1.72,0.00,0.00
15min,AgWx,beryljct,423,18JUN2017:18:00:00,95.7,13.3,89.6,88.8,89.6,90.6,88.7,17,19,15,0.835,39.0,42.0,36.7,17.01,13.0,42,22,19.8,0.00627,0.00911,87.4,69.1,.,538,0,99.1,1.72,0.00,0.00
15min,AgWx,beryljct,423,18JUN2017:18:15:00,95.3,13.33,89.4,88.9,88.9,89.5,88.5,18,20,16,0.834,39.4,42.1,37.1,18.17,15.6,49,12,22.7,0.00637,0.00956,87.4,69.1,.,491,0,97.3,1.73,0.00,0.00
15min,AgWx,beryljct,423,18JUN2017:18:30:00,94.8,13.32,88.8,87.9,88.6,89.4,87.9,18,20,16,0.839,39.3,42.5,36.8,15.61,15.1,47,14,23.4,0.00595,0.00904,87.2,69.1,.,442,0,96.4,1.72,0.00,0.00
15min,AgWx,beryljct,423,18JUN2017:18:45:00,94.2,13.33,89.4,88.9,88.3,89.2,87.6,17,19,15,0.711,38.4,41.3,35.4,12.36,15.1,49,17,22.0,0.00562,0.00868,87.2,69.1,.,395,0,95.2,1.73,0.00,0.00
15min,AgWx,beryljct,423,18JUN2017:19:00:00,93.7,13.27,88.4,87.5,87.9,88.9,87.3,18,20,15,0.829,38.6,41.3,35.7,17.78,15.3,50,8.9,23.4,0.00531,0.00837,86.9,69.1,.,346,0,94.5,1.73,0.00,0.00
15min,AgWx,beryljct,423,18JUN2017:19:15:00,93.0,13.18,87.7,86.9,87.4,88.0,86.8,18,20,17,0.769,38.5,41.6,36.7,14.34,14.6,48,12,20.9,0.00484,0.00775,86.6,69.1,.,298,0,93.2,1.73,0.00,0.00
15min,AgWx,beryljct,423,18JUN2017:19:30:00,92.4,13.15,87.5,86.8,86.9,87.4,86.4,18,21,17,0.775,38.6,41.4,36.4,16.33,12.6,48,8.7,19.7,0.00409,0.00663,86.5,69.1,.,251,0,92.3,1.73,0.00,0.00
15min,AgWx,beryljct,423,18JUN2017:19:45:00,91.6,13.14,86.4,85.6,86.3,86.8,85.3,18,20,17,0.768,38.1,40.3,37.0,17.14,13.8,46,11,18.9,0.00399,0.00669,86.3,69.1,.,204,0,90.8,1.73,0.00,0.00
15min,AgWx,beryljct,423,18JUN2017:20:00:00,90.7,13.11,85.8,84.9,85.3,85.8,84.7,19,20,18,0.814,38.5,40.1,37.2,9.65,12.0,49,7.7,17.2,0.00328,0.00564,85.8,69.1,.,161,0,89.0,1.73,0.00,0.00
15min,AgWx,beryljct,423,18JUN2017:20:15:00,89.6,13.09,85.4,84.6,84.6,85.0,84.2,19,21,18,0.756,37.6,40.2,36.7,10.81,10.4,44,16,16.7,0.00180,0.00238,85.4,69.1,.,120,0,87.3,1.73,0.00,0.00
15min,AgWx,beryljct,423,18JUN2017:20:30:00,88.2,13.05,83.3,82.8,83.3,84.6,82.6,20,21,18,0.772,38.0,39.4,36.9,7.804,9.1,47,12,13.5,0.00150,0.00204,85.1,69.1,.,83,0,84.8,1.73,0.00,0.00
15min,AgWx,beryljct,423,18JUN2017:20:45:00,86.5,13.05,81.1,80.6,81.5,82.7,80.3,21,22,20,0.790,38.0,38.9,37.0,6.248,8.1,49,9.8,12.9,0.00120,0.00167,84.5,69.1,.,37,0,81.0,1.73,0.00,0.00
15min,AgWx,beryljct,423,18JUN2017:21:00:00,84.8,13.01,80.1,79.9,80.2,81.1,79.7,21,22,21,0.732,37.3,38.4,36.5,3.376,5.9,42,18,10.4,0.00082,0.00120,84.1,69.1,.,10,0,77.7,1.73,0.00,0.00
15min,AgWx,beryljct,423,18JUN2017:21:15:00,82.6,13.01,78.3,78.2,78.9,80.0,78.2,22,22,21,0.735,36.7,37.5,36.3,3.727,3.5,34,22,7.6,0.00035,0.00058,83.6,69.1,.,1,0,75.0,1.73,0.00,0.00
15min,AgWx,beryljct,423,18JUN2017:21:30:00,80.5,13,75.9,76.0,76.4,78.2,75.1,24,26,22,0.733,37.0,38.9,36.4,4.012,2.7,38,16,4.9,0.00016,0.00030,83.1,69.1,.,0,0,72.1,1.73,0.00,0.00
15min,AgWx,beryljct,423,18JUN2017:21:45:00,78.5,13,74.5,74.4,75.3,76.0,74.3,25,26,24,0.769,36.7,37.8,35.9,2.083,2.1,35,19,4.5,0.00004,0.00013,82.5,69.1,.,0,0,70.5,1.73,0.00,0.00
15min,AgWx,beryljct,423,18JUN2017:22:00:00,76.6,12.99,72.9,73.2,73.5,74.2,73.2,27,28,26,0.758,37.4,38.2,36.9,0,0.8,44,19,1.9,-0.00028,-0.00039,81.9,69.1,.,0,0,67.9,1.73,0.00,0.00
15min,AgWx,beryljct,423,18JUN2017:22:15:00,74.6,12.97,70.9,70.8,71.1,73.2,69.4,32,37,27,0.780,39.3,43.8,37.2,1.776,1.8,281,33,3.4,-0.00005,-0.00002,81.4,69.1,.,0,0,66.5,1.73,0.00,0.00
15min,AgWx,beryljct,423,18JUN2017:22:30:00,72.7,12.97,69.4,69.5,68.7,70.8,67.4,37,43,30,0.869,41.3,45.3,37.6,0.811,1.2,287,79,3.2,-0.00018,-0.00023,80.9,69.1,.,0,0,64.6,1.73,0.00,0.00
15min,AgWx,beryljct,423,18JUN2017:22:45:00,71.1,12.96,70.1,69.9,70.1,70.9,69.5,33,42,31,0.833,39.8,46.0,38.4,0.833,0.6,183,42,2.1,-0.00033,-0.00049,80.4,69.1,.,0,0,63.7,1.73,0.00,0.00
15min,AgWx,beryljct,423,18JUN2017:23:00:00,69.9,12.96,69.6,69.6,70.0,70.6,68.7,33,39,30,0.842,39.6,43.0,37.5,1.841,0.9,270,26,2.4,-0.00024,-0.00034,79.8,69.1,.,0,0,64.3,1.74,0.00,0.00
15min,AgWx,beryljct,423,18JUN2017:23:15:00,69.2,12.95,69.9,69.8,70.7,71.7,69.5,31,35,28,0.819,38.5,41.6,37.0,0.986,1.5,256,31,4.0,-0.00012,-0.00014,79.4,69.1,.,0,0,65.0,1.74,0.00,0.00
15min,AgWx,beryljct,423,18JUN2017:23:30:00,68.5,12.94,67.9,68.1,68.5,69.9,67.3,34,38,30,0.890,38.9,41.5,36.9,1.622,1.7,280,49,4.0,-0.00007,-0.00006,78.8,69.1,.,0,0,64.1,1.74,0.00,0.00
15min,AgWx,beryljct,423,18JUN2017:23:45:00,67.8,12.93,67.3,67.1,68.8,69.9,67.1,36,43,31,0.937,40.5,44.6,37.6,1.578,2.2,189,28,4.1,0.00001,0.00007,78.3,69.1,.,0,0,63.6,1.75,0.00,0.00
15min,AgWx,beryljct,423,19JUN2017:00:00:00,67.2,12.93,69.5,69.6,68.3,70.1,66.0,35,45,30,0.830,39.7,44.3,36.9,1.754,2.3,134,26,3.4,0.00002,0.00009,77.8,69.1,.,0,0,63.6,1.75,0.00,0.00
15min,AgWx,beryljct,423,19JUN2017:00:15:00,66.6,12.92,68.5,68.4,68.5,69.6,68.0,34,39,32,0.793,39.3,42.5,37.1,1.228,1.1,155,23,2.0,-0.00019,-0.00025,77.4,69.1,.,0,0,63.0,1.75,0.00,0.00
15min,AgWx,beryljct,423,19JUN2017:00:30:00,65.9,12.92,67.5,67.6,68.1,68.7,67.3,34,37,31,0.766,38.6,40.3,36.8,0.789,0.7,160,36,1.6,-0.00030,-0.00043,77.1,69.1,.,0,0,61.9,1.75,0.00,0.00
15min,AgWx,beryljct,423,19JUN2017:00:45:00,65.5,12.91,66.7,67.0,67.6,68.4,66.8,33,35,31,0.788,37.2,38.4,36.5,3.223,1.8,22,32,3.9,-0.00007,-0.00006,76.6,69.1,.,0,0,63.0,1.75,0.00,0.00
15min,AgWx,blo,425,18JUN2017:01:00:00,51.9,12.77,53.8,54.2,53.6,54.4,53.0,58,60,55,0.795,39.1,39.4,38.6,8.26,6.9,256,9.1,8.3,0.00021,0.00029,64.3,63.1,18,0,.,.,26.13,0.00,0.00
15min,AgWx,blo,425,18JUN2017:01:15:00,51.7,12.77,53.6,53.9,53.9,54.3,53.4,56,57,55,0.784,38.6,38.9,38.3,7.563,7.3,257,8.4,8.9,0.00024,0.00033,64.2,63.0,18,0,.,.,26.13,0.00,0.00
15min,AgWx,blo,425,18JUN2017:01:30:00,51.6,12.76,52.9,53.4,53.8,54.2,53.4,55,56,55,0.782,38.3,38.5,38.0,6.84,6.0,255,6.4,7.3,0.00019,0.00027,64.1,62.9,18,0,.,.,26.13,0.00,0.00
15min,AgWx,blo,425,18JUN2017:01:45:00,51.4,12.76,52.0,52.5,53.4,54.1,52.4,56,59,54,0.788,38.1,38.4,37.8,6.182,5.9,261,9.8,7.7,0.00018,0.00026,64.0,62.8,19,0,.,.,26.13,0.00,0.00
15min,AgWx,blo,425,18JUN2017:02:00:00,51.1,12.76,52.4,53.1,52.6,53.1,52.2,60,61,59,0.825,38.9,39.6,38.3,3.595,4.4,272,14,7.2,0.00007,0.00012,63.9,62.7,18,0,.,.,26.13,0.00,0.00
15min,AgWx,blo,425,18JUN2017:02:15:00,50.7,12.74,51.9,52.3,53.4,54.1,52.3,57,61,55,0.775,38.6,39.8,37.6,5.393,4.6,272,10,6.4,0.00009,0.00016,63.8,62.7,18,0,.,.,26.13,0.00,0.00
15min,AgWx,blo,425,18JUN2017:02:30:00,50.4,12.75,52.2,52.8,52.6,53.4,52.0,57,59,56,0.788,38.1,38.9,37.7,2.981,5.1,286,14,8.3,0.00012,0.00019,63.7,62.6,18,0,.,.,26.13,0.00,0.00
15min,AgWx,blo,425,18JUN2017:02:45:00,50.1,12.75,50.1,50.6,52.1,53.1,50.6,58,62,56,0.774,38.0,39.3,37.5,4.209,4.0,256,21,6.2,0.00005,0.00009,63.6,62.5,18,0,.,.,26.13,0.00,0.00
15min,AgWx,blo,425,18JUN2017:03:00:00,49.4,12.75,49.0,49.2,49.9,53.2,48.2,62,68,50,0.768,37.4,38.2,34.7,7.212,5.2,235,18,7.2,0.00008,0.00014,63.4,62.4,18,0,.,.,26.12,0.00,0.00
15min,AgWx,blo,425,18JUN2017:03:15:00,48.7,12.74,49.3,49.5,49.2,50.6,47.5,63,68,57,0.734,37.1,37.8,35.6,3.529,5.5,256,54,8.0,0.00009,0.00015,63.3,62.3,18,0,.,.,26.12,0.00,0.00
15min,AgWx,blo,425,18JUN2017:03:30:00,48.2,12.72,49.7,50.2,50.5,51.7,49.2,57,61,54,0.684,35.7,37.6,34.6,5.524,4.0,311,36,6.1,0.00005,0.00010,63.3,62.3,19,0,.,.,26.12,0.00,0.00
15min,AgWx,blo,425,18JUN2017:03:45:00,47.9,12.71,50.6,51.1,51.3,52.5,49.5,53,60,48,0.651,34.9,38.4,32.9,3.288,4.6,284,23,7.2,0.00011,0.00018,63.1,62.2,18,0,.,.,26.13,0.00,0.00
15min,AgWx,blo,425,18JUN2017:04:00:00,47.6,12.73,48.7,49.3,49.9,51.1,49.2,57,60,51,0.714,35.2,36.4,33.8,2.587,3.6,244,15,4.6,0.00002,0.00006,63.0,62.1,18,0,.,.,26.13,0.00,0.00
15min,AgWx,blo,425,18JUN2017:04:15:00,47.1,12.72,47.4,47.7,49.0,49.7,47.7,56,60,52,0.629,34.1,36.1,32.6,5.437,3.8,256,50,6.2,0.00004,0.00008,63.0,62.0,18,0,.,.,26.12,0.00,0.00
15min,AgWx,blo,425,18JUN2017:04:30:00,46.8,12.72,50.9,51.3,51.1,52.4,47.8,48,55,43,0.568,31.8,35.7,29.9,3.354,3.0,266,32,5.5,0.00002,0.00007,62.8,61.9,18,0,.,.,26.13,0.00,0.00
15min,AgWx,blo,425,18JUN2017:04:45:00,46.8,12.71,49.9,50.4,50.8,51.4,50.2,52,58,44,0.723,33.6,37.2,30.1,3.573,3.6,273,14,5.0,0.00005,0.00010,62.7,61.9,18,0,.,.,26.13,0.00,0.00
15min,AgWx,blo,425,18JUN2017:05:00:00,46.5,12.71,48.6,49.7,49.0,50.6,47.4,53,60,46,0.571,32.8,37.1,29.7,3.42,3.6,233,14,5.3,0.00004,0.00009,62.6,61.8,18,0,.,.,26.13,0.00,0.00
15min,AgWx,blo,425,18JUN2017:05:15:00,46.1,12.7,48.4,49.2,48.7,49.7,47.2,48,55,40,0.521,29.8,32.0,26.0,0.57,3.5,220,21,5.8,0.00006,0.00011,62.5,61.7,19,0,.,.,26.12,0.00,0.00
15min,AgWx,blo,425,18JUN2017:05:30:00,46.0,12.7,49.5,50.0,49.7,50.6,48.1,43,49,40,0.511,28.1,30.0,27.0,4.297,7.2,259,18,11.6,0.00031,0.00041,62.4,61.6,18,0,.,.,26.13,0.01,0.00
15min,AgWx,blo,425,18JUN2017:05:45:00,46.0,12.7,48.3,49.2,49.3,50.1,48.2,42,45,39,0.503,27.0,28.5,25.6,2.214,2.4,278,60,4.4,-0.00002,0.00001,62.3,61.5,18,2,.,.,26.13,0.00,0.00
15min,AgWx,blo,425,18JUN2017:06:00:00,45.8,12.69,47.6,48.3,48.7,49.7,47.7,43,46,41,0.508,27.2,28.1,26.5,3.836,3.2,232,16,4.5,0.00007,0.00014,62.2,61.5,18,10,.,.,26.13,0.00,0.00
15min,AgWx,blo,425,18JUN2017:06:15:00,45.8,12.69,52.0,52.0,48.8,52.0,46.9,42,48,34,0.462,26.4,28.4,24.0,0.965,3.0,191,36,5.5,0.00002,0.00029,62.1,61.3,18,43,.,.,26.13,0.00,0.00
15min,AgWx,blo,425,18JUN2017:06:30:00,46.8,12.7,51.0,49.5,49.8,52.2,48.6,41,45,34,0.515,27.1,28.1,24.8,3.442,3.4,223,15,5.4,0.00023,0.00056,61.9,61.3,18,74,.,.,26.13,0.01,0.00
15min,AgWx,blo,425,18JUN2017:06:45:00,48.5,12.71,52.4,51.6,51.5,53.0,49.5,40,45,35,0.545,28.3,32.2,25.0,2.126,2.3,272,76,4.3,0.00017,0.00041,61.8,61.1,18,86,.,.,26.14,0.00,0.00
15min,AgWx,blo,425,18JUN2017:07:00:00,50.7,12.71,53.9,51.5,51.7,52.0,51.4,53,62,42,0.628,35.2,39.5,29.5,3.354,2.0,260,27,3.8,0.00032,0.00050,61.7,61.1,18,124,.,.,26.14,0.01,0.00
15min,AgWx,blo,425,18JUN2017:07:15:00,53.1,12.72,56.0,54.5,52.6,54.5,51.4,46,53,34,0.536,32.1,35.3,26.7,0.899,2.2,214,48,3.7,0.00077,0.00103,61.5,61.0,18,192,.,.,26.15,0.00,0.00
15min,AgWx,blo,425,18JUN2017:07:30:00,55.8,12.72,57.2,56.3,56.3,57.4,54.6,44,57,30,0.781,34.2,41.4,25.4,1.666,2.1,109,36,4.5,0.00106,0.00135,61.5,60.9,18,235,.,.,26.15,0.00,0.00
15min,AgWx,blo,425,18JUN2017:07:45:00,58.3,12.73,56.6,56.8,56.9,57.2,56.2,55,60,47,0.863,40.7,43.3,36.6,4.275,2.9,80,16,5.4,0.00139,0.00172,61.3,60.8,18,281,.,.,26.16,0.00,0.00
15min,AgWx,blo,425,18JUN2017:08:00:00,60.2,12.73,56.2,56.2,55.9,56.8,55.1,61,67,54,0.903,42.8,44.8,40.3,4.757,3.8,62,24,6.3,0.00164,0.00199,61.1,60.8,18,322,.,.,26.16,0.00,0.00
15min,AgWx,blo,425,18JUN2017:08:15:00,62.0,12.74,57.9,57.3,56.6,57.3,55.7,61,65,58,0.938,43.3,45.2,42.0,1.688,3.0,74,38,5.8,0.00193,0.00227,61.1,60.6,18,375,.,.,26.16,0.00,0.00
15min,AgWx,blo,425,18JUN2017:08:30:00,63.9,12.74,57.0,57.7,57.9,58.3,57.4,58,62,55,0.978,43.4,45.1,41.8,6.248,3.9,73,19,8.3,0.00231,0.00274,60.9,60.6,18,424,.,.,26.16,0.00,0.00
15min,AgWx,blo,425,18JUN2017:08:45:00,65.2,12.74,58.6,59.1,58.0,59.1,57.3,60,63,57,0.967,44.1,46.0,42.4,4.516,3.9,70,18,7.3,0.00258,0.00302,60.8,60.6,19,471,.,.,26.16,0.00,0.00
15min,AgWx,blo,425,18JUN2017:09:00:00,66.5,12.74,59.0,59.1,58.7,59.4,58.1,58,63,51,0.872,44.2,46.3,41.0,2.477,4.4,60,18,6.2,0.00292,0.00342,60.8,60.4,18,519,.,.,26.16,0.00,0.00